Location: Namasale
(1.5000°N, 32.6167°E)
Time: 00:36:07
(UTC+00:00)

Vanguard 3 - Pass Details

Date: 10 December 2021
Orbit: 508 x 3260 km, 33.3° (Epoch: 27 January)

Event Time Altitude Azimuth Distance (km) Brightness Sun altitude
Rises 17:20:17 0° 193° (SSW) 3,426 10.9 -23.0°
Reaches altitude 10° 17:24:03 10° 166° (SSE) 2,910 10.1 -23.9°
Maximum altitude 17:27:32 14° 136° (SE) 3,032 9.9 -24.7°
Enters shadow 17:29:10 13° 125° (SE) 3,267 9.9 -25.0°
